Home   Weather   Orkanger/Fannrem   Past weeks

Flag for Norway Past Weather in Orkanger/Fannrem, Norway — Yesterday and Last 2 Weeks

Now
35 °F

Drizzle. Low clouds.


Feels Like: 31 °F
Forecast: 40 / 45 °F
Wind: 5 mph from Southeast

Location: Orland Iii

Current Time: Dec 3, 2016 at 10:45:46 am

Latest Report: Dec 3, 2016 at 10:00 am


Visibility: 19 mi

Pressure: 30.06 "Hg

Humidity: 94%

Dew Point: 34 °F

Location of Orkanger/FannremLocation

Past Weather in Orkanger/Fannrem — Graph

°F

Orkanger/Fannrem Temperature Yesterday

Maximum temperature yesterday: 42 °F (at 3:00 am)
Minimum temperature yesterday: 38 °F (at 6:00 pm)
Average temperature yesterday: 40 °F

High & Low Weather Summary for the Past Weeks

 TemperatureHumidityPressure
High49 °F (Nov 25, 12:00 pm)94% (Nov 23, 10:00 am)30.41 "Hg (Nov 23, 10:00 am)
Low30 °F (Nov 19, 12:00 am)53% (Nov 27, 3:00 am)28.97 "Hg (Nov 18, 6:00 pm)
Average39 °F79%29.74 "Hg
* Reported Nov 18 9:00 am — Dec 3 9:00 am, Orkanger/Fannrem, Weather by CustomWeather, © 2016

Note: Actual official high and low records may vary slightly from our data, if they occured in-between our weather recording intervals... More about our weather records

Advertising

Orkanger/Fannrem Weather History for the Previous 24 Hours

Scroll right to see more
 ConditionsComfort  
Time TempWeatherWind HumidityBarometerVisibility
9:00 am
Sat, Dec 3
35 °FDrizzle. Low clouds.3 mph94%30.06 "Hg6 mi
8:00 am35 °FDrizzle. Low clouds.2 mph94%30.06 "Hg6 mi
7:00 am35 °FLight rain. Low clouds.2 mph94%30.06 "Hg6 mi
6:00 am35 °FLight rain. Overcast.3 mph94%30.06 "Hg6 mi
5:00 am34 °FLight rain. Low clouds.2 mph94%30.07 "Hg6 mi
4:00 am34 °FLight rain. Overcast.3 mph92%30.07 "Hg16 mi
3:00 am35 °FLight rain. Overcast.2 mph91%30.09 "Hg6 mi
2:00 am36 °FOvercast.7 mph87%30.09 "Hg19 mi
1:00 am37 °FSprinkles. Overcast.8 mph86%30.09 "Hg19 mi
12:00 am39 °FSprinkles. Overcast.7 mph74%30.09 "Hg19 mi
11:00 pm
Fri, Dec 2
38 °FOvercast.14 mph79%30.09 "Hg19 mi
10:00 pm38 °FOvercast.13 mph82%30.09 "Hg19 mi
9:00 pm41 °FOvercast.10 mph59%30.09 "Hg25 mi
8:00 pm39 °FSprinkles. Overcast.8 mph69%30.09 "Hg9 mi
7:00 pm41 °FOvercast.10 mph57%30.10 "Hg19 mi
6:00 pm38 °FOvercast.12 mph80%30.11 "Hg19 mi
5:00 pm40 °FOvercast.13 mph56%30.09 "Hg19 mi
4:00 pm40 °FOvercast.9 mph60%30.09 "Hg19 mi
3:00 pm40 °FOvercast.12 mph63%30.09 "Hg19 mi
2:00 pm40 °FPartly sunny.12 mph73%30.08 "Hg19 mi
1:00 pm40 °FChilly.8 mph82%30.08 "HgN/A
12:00 pm38 °FPartly sunny.5 mph71%30.09 "Hg19 mi
11:00 am40 °FPartly sunny.12 mph73%30.07 "Hg25 mi
10:00 am40 °FScattered clouds.6 mph63%30.06 "Hg37 mi
Weather by CustomWeather, © 2016

See weather overviewHow to use our weather pages